Back to catalog

FENGYUN 1C DEB

LostSSO
NORAD 36999·DEBRIS·🇨🇳 China

Launched May 10, 1999 from Taiyuan Satellite Launch Center

Loading…

Next Passes (next 24 hours)

TLE

StaleSource: Space-Track

Epoch: Oct 1, 2017, 21:46 UTC

1 36999U 99025ECF 17274.90761831  .00000945  00000-0  77085-3 0  9995
2 36999  99.2540 163.5375 0194857 328.3737  30.5827 13.83869284466478

Track FENGYUN 1C DEB in real time with AllMySat

Download on the App Store